Simultaneous Nadir Overpasses (SNOs) Predictions

Prediction of SNOs between TERRA and METOP-C Satellite Orbit:

Table of predicted SNOs for the next 14.0 days since TLE Epoch: 5/1/2021
Index Date (TERRA) Time (TERRA) Lat,Lon (TERRA) SZA (TERRA ) Date (METOP-C) Time (METOP-C) Lat,Lon (METOP-C) SZA (METOP-C ) Distance(km) Time Diff (sec)
1 05/01/2021 05:31:04 -81.30, -36.58 111.02 05/01/2021 05:30:35 -81.29, -36.55 111.03 0.65 29
2 05/01/2021 06:20:30 81.31, 131.20 68.99 05/01/2021 06:21:16 81.30, 131.02 68.99 3.25 46
3 05/04/2021 01:05:16 -81.29, 29.77 111.85 05/04/2021 01:04:56 -81.30, 29.95 111.84 2.95 20
4 05/04/2021 01:54:42 81.30,-162.48 68.16 05/04/2021 01:55:37 81.30,-162.54 68.18 0.93 55
5 05/06/2021 20:39:29 -81.29, 96.07 112.66 05/06/2021 20:39:19 -81.29, 96.04 112.67 0.72 10
6 05/06/2021 21:28:55 81.29, -96.21 67.35 05/06/2021 21:29:59 81.30, -96.11 67.40 1.96 64
7 05/09/2021 15:24:15 81.28, -5.27 66.58 05/09/2021 15:23:02 81.28, -5.38 66.54 1.83 73
8 05/09/2021 16:13:41 -81.30, 162.70 113.38 05/09/2021 16:13:40 -81.30, 162.90 113.36 3.25 1
9 05/09/2021 17:03:04 81.36, -28.47 66.79 05/09/2021 17:04:18 81.32, -28.53 66.79 5.05 74
10 05/12/2021 10:58:26 81.28, 61.29 65.88 05/12/2021 10:57:22 81.29, 61.40 65.87 1.90 64



Historial Predications of SNOs between TERRA and METOP-C
